GW3503 Weather Reports


Display with metric or nautical units.
time (UTC)temp
F
wind
direction
speed
MPH
gust
MPH
rain 1hr
in
rain 24hr
in
rain mn
in
humidity
%
barometer
mb
20260503220004 65 127 1.0 4.0 0.00 0.00 0.00 43 1016.5
20260503214510 65 151 1.0 5.0 0.00 0.00 0.00 44 1016.6
20260503213004 66 306 1.0 3.0 0.00 0.00 0.00 41 1016.7
20260503211505 67 342 1.0 8.0 0.00 0.00 0.00 39 1016.8
20260503210007 67 347 1.0 4.0 0.00 0.00 0.00 37 1016.8
20260503204506 67 218 0.0 6.0 0.00 0.00 0.00 37 1016.9
20260503203009 68 14 3.0 9.0 0.00 0.00 0.00 37 1017.2
20260503201504 68 194 1.0 5.0 0.00 0.00 0.00 40 1017.5
20260503200010 67 217 2.0 5.0 0.00 0.00 0.00 41 1017.7
20260503194509 67 271 1.0 7.0 0.00 0.00 0.00 39 1018.0
20260503193011 67 249 1.0 5.0 0.00 0.00 0.00 36 1018.2
20260503191524 66 219 2.0 4.0 0.00 0.00 0.00 36 1018.4
20260503190009 66 23 1.0 5.0 0.00 0.00 0.00 38 1018.4
20260503184508 66 246 1.0 4.0 0.00 0.00 0.00 39 1018.6
20260503183009 66 187 1.0 4.0 0.00 0.00 0.00 39 1018.7
20260503181508 65 348 1.0 5.0 0.00 0.00 0.00 40 1018.8
20260503180010 64 134 3.0 11.0 0.00 0.00 0.00 41 1019.1
20260503174509 64 57 0.0 5.0 0.00 0.00 0.00 44 1019.1
20260503173010 63 194 1.0 5.0 0.00 0.00 0.00 42 1019.2
20260503171512 63 164 2.0 4.0 0.00 0.00 0.00 45 1019.6
20260503081522 39 157 0.0 0.0 0.00 0.00 0.00 89 1018.4
20260503071512 39 180 0.0 0.0 0.00 0.00 0.00 87 1017.7
20260503054529 41 20 0.0 0.0 0.00 0.00 0.00 81 1017.5
20260503053029 41 20 0.0 0.0 0.00 0.00 0.00 81 1017.5
20260503051508 41 20 0.0 0.0 0.00 0.00 0.00 81 1017.6
20260503050014 42 20 0.0 0.0 0.00 0.00 0.00 79 1017.5
20260503044505 42 20 0.0 0.0 0.00 0.00 0.00 78 1017.4
20260503043003 43 20 0.0 0.0 0.00 0.00 0.00 76 1017.4
20260503041507 43 20 0.0 0.0 0.00 0.00 0.00 75 1017.3
20260503040011 44 20 0.0 1.0 0.00 0.00 0.00 73 1017.2
20260503034512 45 20 0.0 0.0 0.00 0.00 0.00 70 1017.0
20260503033004 47 20 0.0 0.0 0.00 0.00 0.00 67 1016.8
20260503031505 48 20 0.0 0.0 0.00 0.00 0.00 63 1016.7
20260503030007 50 20 0.0 2.0 0.00 0.00 0.00 58 1016.6
20260503024514 52 9 1.0 2.0 0.00 0.00 0.00 54 1016.5
20260503023018 54 148 2.0 7.0 0.00 0.00 0.00 47 1015.9
20260503021505 53 152 3.0 6.0 0.00 0.00 0.00 47 1015.9
20260503020007 54 326 1.0 11.0 0.00 0.00 0.00 48 1015.7
20260503014509 55 157 4.0 8.0 0.00 0.00 0.00 45 1015.2
20260503013024 55 182 2.0 11.0 0.00 0.00 0.00 46 1015.0
20260503011520 54 162 4.0 8.0 0.00 0.00 0.00 46 1014.8
20260503010006 51 313 1.0 3.0 0.00 0.00 0.00 62 1014.6
20260503004506 51 261 0.0 2.0 0.00 0.00 0.00 58 1014.3
20260503003010 53 272 0.0 2.0 0.00 0.00 0.00 56 1014.1
20260503001518 56 5 1.0 7.0 0.00 0.00 0.00 52 1013.9
20260503000026 57 51 0.0 6.0 0.00 0.00 0.00 50 1013.7
20260502234505 57 140 4.0 9.0 0.00 0.00 0.00 45 1013.6
20260502233019 58 203 4.0 11.0 0.00 0.00 0.00 43 1013.4
20260502231513 58 141 5.0 9.0 0.00 0.00 0.00 45 1013.2
20260502230025 59 150 1.0 9.0 0.00 0.00 0.00 44 1013.1
20260502224526 59 174 2.0 5.0 0.00 0.00 0.00 40 1013.2
20260502223004 59 163 3.0 8.0 0.00 0.00 0.00 42 1013.0
20260502221515 60 185 2.0 7.0 0.00 0.00 0.00 42 1012.9